EW7706 Weather Reports


time (UTC)temp
F
wind
direction
speed
knots
gust
knots
rain 1hr
in
rain 24hr
in
rain mn
in
humidity
%
barometer
mb
20260509064529 52 227 0.9 6.1 0.00 0.00 0.00 60 1004.5
20260509063036 51 203 1.7 9.6 0.00 0.00 0.00 57 1004.7
20260509061529 50 188 0.0 0.9 0.00 0.00 0.00 44 1004.6
20260509060030 50 0 0.0 2.6 0.00 0.00 0.00 41 1004.9
20260509054535 50 0 0.0 3.5 0.00 0.00 0.00 40 1005.0
20260509053047 50 0 0.0 0.9 0.00 0.00 0.00 39 1005.0
20260509051529 50 0 0.0 0.0 0.00 0.00 0.00 39 1005.0
20260509050033 50 0 0.0 0.9 0.00 0.00 0.00 40 1005.0
20260509044528 49 0 0.0 1.7 0.00 0.00 0.00 41 1005.2
20260509043040 49 0 0.0 0.0 0.00 0.00 0.00 41 1005.3
20260509041528 49 0 0.0 0.0 0.00 0.00 0.00 41 1005.5
20260509040034 49 0 0.0 0.0 0.00 0.00 0.00 41 1005.6
20260509034528 49 0 0.0 1.7 0.00 0.00 0.00 40 1005.8
20260509033030 50 161 0.0 1.7 0.00 0.00 0.00 41 1005.8
20260509031531 50 0 0.0 0.0 0.00 0.00 0.00 41 1006.0
20260509030028 51 0 0.0 0.0 0.00 0.00 0.00 40 1006.1
20260509024527 52 0 0.0 0.0 0.00 0.00 0.00 38 1006.4
20260509023028 52 0 0.0 0.0 0.00 0.00 0.00 36 1006.5
20260509021530 53 0 0.0 0.0 0.00 0.00 0.00 35 1006.5
20260509020031 54 0 0.0 0.9 0.00 0.00 0.00 35 1006.3
20260509014531 55 0 0.0 0.9 0.00 0.00 0.00 34 1006.4
20260509013031 56 0 0.0 0.0 0.00 0.00 0.00 31 1006.4
20260509011530 57 0 0.0 0.0 0.00 0.00 0.00 30 1006.2
20260509010036 58 0 0.0 1.7 0.00 0.00 0.00 28 1006.2
20260509004530 59 0 0.0 2.6 0.00 0.00 0.00 27 1006.3
20260509003034 60 193 0.0 4.3 0.00 0.00 0.00 27 1006.4
20260509001531 61 0 0.0 2.6 0.00 0.00 0.00 26 1006.4
20260509000030 61 230 0.9 6.1 0.00 0.00 0.00 26 1006.7
20260508234530 62 271 0.9 7.0 0.00 0.00 0.00 26 1006.8
20260508233034 62 240 0.9 7.8 0.00 0.00 0.00 26 1006.9
20260508231530 63 288 1.7 6.1 0.00 0.00 0.00 26 1006.9
20260508230028 63 219 4.3 8.7 0.00 0.00 0.00 25 1006.9
20260508224528 64 234 0.9 7.0 0.00 0.00 0.00 25 1006.9
20260508223032 64 265 1.7 7.8 0.00 0.00 0.00 26 1006.9
20260508221532 64 300 0.9 7.8 0.00 0.00 0.00 25 1007.0
20260508220027 65 278 1.7 10.4 0.00 0.00 0.00 25 1006.9
20260508214534 66 281 1.7 8.7 0.00 0.00 0.00 24 1006.9
20260508213028 66 275 1.7 7.8 0.00 0.00 0.00 24 1006.9
20260508211531 67 272 0.9 2.6 0.00 0.00 0.00 23 1007.2
20260508210034 68 273 3.5 7.8 0.00 0.00 0.00 23 1007.2
20260508204536 69 240 3.5 8.7 0.00 0.00 0.00 22 1007.4
20260508203034 68 275 0.9 7.0 0.00 0.00 0.00 24 1007.5
20260508201531 68 214 0.9 7.0 0.00 0.00 0.00 23 1007.6
20260508200033 67 261 2.6 10.4 0.00 0.00 0.00 24 1007.9
20260508194531 67 279 0.9 6.1 0.00 0.00 0.00 25 1008.0
20260508193030 66 290 3.5 8.7 0.00 0.00 0.00 24 1008.2
20260508191532 66 282 2.6 7.0 0.00 0.00 0.00 23 1008.1
20260508190029 65 334 0.9 8.7 0.00 0.00 0.00 26 1008.2
20260508184528 65 296 2.6 7.8 0.00 0.00 0.00 25 1008.5
20260508183030 65 302 2.6 7.8 0.00 0.00 0.00 26 1008.6
20260508181540 65 345 0.9 7.8 0.00 0.00 0.00 27 1008.9
20260508180030 65 263 1.7 7.8 0.00 0.00 0.00 27 1009.0
20260508174537 65 190 2.6 7.0 0.00 0.00 0.00 28 1009.2
20260508173029 64 273 1.7 7.8 0.00 0.00 0.00 29 1009.4
20260508171537 63 282 1.7 7.8 0.00 0.00 0.00 30 1009.7
20260508170028 62 248 1.7 9.6 0.00 0.00 0.00 30 1009.9
20260508164530 62 254 2.6 7.8 0.00 0.00 0.00 27 1010.2
20260508163029 61 196 2.6 7.0 0.00 0.00 0.00 29 1010.4
20260508161544 61 243 3.5 7.0 0.00 0.00 0.00 31 1010.4
20260508160028 61 203 2.6 11.3 0.00 0.00 0.00 31 1010.5
20260508154529 61 47 0.9 7.8 0.00 0.00 0.00 35 1010.4
20260508153049 61 248 0.9 7.0 0.00 0.00 0.00 37 1010.7
20260508151527 60 136 0.9 7.0 0.00 0.00 0.00 39 1010.6
20260508150028 60 0 0.9 7.0 0.00 0.00 0.00 37 1011.0
20260508144532 59 211 0.9 7.8 0.00 0.00 0.00 40 1011.0
20260508143045 57 199 3.5 8.7 0.00 0.00 0.00 42 1011.0
20260508141530 57 0 1.7 7.0 0.00 0.00 0.00 44 1011.1
20260508140030 56 0 1.7 5.2 0.00 0.00 0.00 50 1011.1
20260508134534 56 0 0.0 4.3 0.00 0.00 0.00 54 1011.2
20260508133029 54 0 0.0 2.6 0.00 0.00 0.00 58 1011.3
20260508131529 52 0 0.0 1.7 0.00 0.00 0.00 63 1011.4
20260508130027 50 0 0.0 3.5 0.00 0.00 0.00 67 1011.6
20260508124529 47 0 0.0 0.0 0.00 0.00 0.00 72 1011.7
20260508123028 44 0 0.0 2.6 0.00 0.00 0.00 78 1011.7
20260508121533 42 0 0.0 1.7 0.00 0.00 0.00 83 1011.5
20260508120028 39 0 0.0 0.0 0.00 0.00 0.00 89 1011.4
20260508114528 36 0 0.0 0.0 0.00 0.00 0.00 90 1011.2
20260508113028 35 0 0.0 0.0 0.00 0.00 0.00 87 1011.1
20260508111528 35 0 0.0 0.0 0.00 0.00 0.00 86 1011.1
20260508110033 35 0 0.0 0.0 0.00 0.00 0.00 86 1011.0
20260508104531 35 0 0.0 0.0 0.00 0.00 0.00 86 1010.8
20260508103041 35 0 0.0 0.0 0.00 0.00 0.00 85 1010.7
20260508101530 36 0 0.0 0.0 0.00 0.00 0.00 84 1010.8
20260508100032 36 0 0.0 0.0 0.00 0.00 0.00 84 1010.9
20260508094528 36 0 0.0 0.0 0.00 0.00 0.00 83 1010.9
20260508093036 37 0 0.0 0.0 0.00 0.00 0.00 83 1011.0
20260508091530 37 0 0.0 0.0 0.00 0.00 0.00 83 1011.0
20260508090037 37 0 0.0 0.0 0.00 0.00 0.00 81 1010.9
20260508084528 38 0 0.0 0.0 0.00 0.00 0.00 80 1011.0
20260508083030 38 0 0.0 0.0 0.00 0.00 0.00 79 1011.1
20260508081528 39 0 0.0 0.0 0.00 0.00 0.00 79 1011.1
20260508080029 39 0 0.0 0.0 0.00 0.00 0.00 78 1011.1
20260508074534 39 0 0.0 0.0 0.00 0.00 0.00 78 1011.2
20260508073030 40 0 0.0 0.0 0.00 0.00 0.00 79 1011.2
20260508071533 40 0 0.0 0.0 0.00 0.00 0.00 78 1011.4
20260508070030 39 0 0.0 0.0 0.00 0.00 0.00 77 1011.5